Date String (YYYY-MM-DD hh:mm:ss) UTC,Instrument flags,Ambient pressure (hPa),Sample flow (lpm),Bypass flow (lpm),Sample temperature (°C),Ambient temperature (°C),ASC tube jacket temperature (°C),LED temperature (°C),Box temperature (°C),Sample RH (%),Span deviation,Mass concentration (μg/m³),Mass concentration (μg/m³),Mass concentration (μg/m³)
DateTimeUTC,F1_M11,P_M11,Q1_M11,Q2_M11,T1_M11,T2_M11,T3_M11,T4_M11,T5_M11,U1_M11,ZSPAN_M11,X2_M11,X0_M11,X1_M11
2023-05-22 17:00:00,,0831.2,5.00,0.00,30.0,28.6,00.0,38.3,31.6,22.6,0003.4,0021.64,0032.78,0020.30
2023-05-22 17:01:00,,0831.1,5.00,0.00,30.0,28.6,00.0,38.3,31.6,22.8,0003.5,0021.66,0032.75,0020.30
2023-05-22 17:02:00,,0831.1,5.00,0.00,30.0,28.6,00.0,38.3,31.7,22.4,0003.5,0021.64,0032.48,0020.28
2023-05-22 17:03:00,,0831.1,5.01,0.00,30.0,28.6,00.0,38.3,31.7,22.6,0003.5,0021.62,0032.17,0020.27
2023-05-22 17:04:00,,0831.2,5.00,0.00,30.0,28.6,00.0,38.3,31.7,22.4,0003.5,0021.64,0031.91,0020.29
2023-05-22 17:05:00,,0831.1,5.01,0.00,30.1,28.6,00.0,38.3,31.7,22.3,0003.6,0021.70,0032.34,0020.35
2023-05-22 17:06:00,,0831.1,5.01,0.00,30.1,28.7,00.0,38.3,31.7,21.4,0003.6,0021.67,0032.27,0020.34
2023-05-22 17:07:00,,0831.1,4.99,0.00,30.1,28.7,00.0,38.4,31.7,21.1,0003.5,0021.71,0032.28,0020.33
2023-05-22 17:08:00,,0831.1,5.00,0.00,30.1,28.7,00.0,38.4,31.7,21.9,0003.3,0021.63,0031.54,0020.30
2023-05-22 17:09:00,,0831.1,5.00,0.00,30.1,28.7,00.0,38.4,31.7,21.7,0003.3,0021.63,0030.62,0020.31
2023-05-22 17:10:00,,0831.1,5.01,0.00,30.1,28.7,00.0,38.4,31.7,21.2,0003.2,0021.65,0030.67,0020.33
2023-05-22 17:11:00,,0831.1,4.99,0.00,30.1,28.7,00.0,38.4,31.7,21.2,0003.3,0021.64,0030.88,0020.35
2023-05-22 17:12:00,,0831.2,4.98,0.00,30.1,28.7,00.0,38.4,31.8,21.1,0003.3,0021.68,0030.94,0020.39
2023-05-22 17:13:00,,0831.1,5.00,0.00,30.2,28.8,00.0,38.4,31.8,20.8,0003.4,0021.70,0030.89,0020.43
2023-05-22 17:14:00,,0831.2,5.00,0.00,30.2,28.8,00.0,38.4,31.7,21.0,0003.5,0021.68,0030.52,0020.43
2023-05-22 17:15:00,,0831.2,5.01,0.00,30.2,28.8,00.0,38.5,31.8,21.0,0003.5,0021.66,0030.50,0020.42
2023-05-22 17:16:00,,0831.1,5.01,0.00,30.2,28.8,00.0,38.5,31.8,21.0,0003.6,0021.58,0030.42,0020.37
2023-05-22 17:17:00,,0831.1,4.99,0.00,30.2,28.8,00.0,38.5,31.8,21.5,0003.5,0021.60,0030.91,0020.39
2023-05-22 17:18:00,,0831.1,4.99,0.00,30.2,28.8,00.0,38.5,31.8,20.3,0003.5,0021.57,0030.80,0020.41
2023-05-22 17:19:00,,0831.2,5.00,0.00,30.2,28.8,00.0,38.5,31.8,20.8,0003.6,0021.56,0030.52,0020.40
2023-05-22 17:20:00,,0831.1,5.01,0.00,30.2,28.9,00.0,38.5,31.8,20.2,0003.6,0021.54,0030.47,0020.38
2023-05-22 17:21:00,,0831.1,5.00,0.00,30.2,28.9,00.0,38.5,31.8,20.2,0003.7,0021.46,0030.08,0020.33
2023-05-22 17:22:00,,0831.1,4.98,0.00,30.3,28.9,00.0,38.5,31.9,20.1,0003.7,0021.45,0029.80,0020.29
2023-05-22 17:23:00,,0831.2,5.00,0.00,30.3,28.8,00.0,38.5,31.9,20.4,0003.7,0021.47,0030.30,0020.28
2023-05-22 17:24:00,,0831.1,5.00,0.00,30.3,27.7,00.0,38.5,31.8,20.7,0003.7,0021.47,0030.97,0020.24
2023-05-22 17:25:00,,0831.1,5.00,0.00,30.2,26.3,00.0,38.4,31.5,20.7,0003.7,0021.43,0030.80,0020.25
2023-05-22 17:26:00,,0831.0,5.01,0.00,30.1,26.2,00.0,38.3,31.5,20.5,0003.7,0021.39,0030.31,0020.23
2023-05-22 17:27:00,,0831.0,5.00,0.00,30.0,26.5,00.0,38.3,31.4,21.1,0003.6,0021.43,0029.93,0020.29
2023-05-22 17:28:00,,0831.0,5.00,0.00,30.0,26.7,00.0,38.3,31.4,21.2,0003.5,0021.48,0029.60,0020.33
2023-05-22 17:29:00,,0831.0,5.01,0.00,30.0,27.0,00.0,38.3,31.4,20.7,0003.5,0021.51,0029.90,0020.33
2023-05-22 17:30:00,,0831.0,4.99,0.00,29.9,27.3,00.0,38.3,31.4,20.7,0003.6,0021.57,0029.96,0020.38
2023-05-22 17:31:00,,0831.1,4.99,0.00,29.9,27.5,00.0,38.3,31.4,20.4,0003.7,0021.59,0030.02,0020.40
2023-05-22 17:32:00,,0831.1,5.01,0.00,29.9,27.7,00.0,38.3,31.4,20.6,0003.6,0021.58,0030.01,0020.41
2023-05-22 17:33:00,,0831.0,5.01,0.00,29.9,27.9,00.0,38.3,31.4,21.1,0003.4,0021.57,0030.00,0020.43
2023-05-22 17:34:00,,0831.0,5.00,0.00,29.9,28.0,00.0,38.3,31.4,20.8,0003.4,0021.53,0030.36,0020.42
2023-05-22 17:35:00,,0831.1,4.99,0.00,29.9,28.1,00.0,38.3,31.5,21.0,0003.4,0021.48,0029.59,0020.42
2023-05-22 17:36:00,,0831.1,4.99,0.00,29.9,28.2,00.0,38.3,31.5,20.9,0003.4,0021.52,0030.42,0020.44
2023-05-22 17:37:00,,0831.1,4.99,0.00,29.9,28.3,00.0,38.3,31.5,21.0,0003.3,0021.60,0030.77,0020.49
2023-05-22 17:38:00,,0831.1,5.01,0.00,30.0,28.3,00.0,38.3,31.5,21.4,0003.2,0021.59,0031.10,0020.48
2023-05-22 17:39:00,,0831.0,5.00,0.00,30.0,28.4,00.0,38.3,31.6,21.4,0003.3,0021.54,0031.86,0020.45
2023-05-22 17:40:00,,0831.1,5.00,0.00,30.0,28.4,00.0,38.3,31.6,21.0,0003.4,0021.52,0031.48,0020.45
2023-05-22 17:41:00,,0831.1,4.99,0.00,30.0,28.5,00.0,38.3,31.6,20.9,0003.2,0021.51,0031.74,0020.47
2023-05-22 17:42:00,,0831.1,5.00,0.00,30.0,28.5,00.0,38.3,31.6,21.1,0003.1,0021.52,0031.91,0020.49
2023-05-22 17:43:00,,0831.1,5.00,0.00,30.0,28.6,00.0,38.3,31.6,20.9,0003.1,0021.58,0032.01,0020.53
2023-05-22 17:44:00,,0831.0,5.01,0.00,30.0,28.6,00.0,38.3,31.7,21.6,0003.3,0021.56,0031.96,0020.51
2023-05-22 17:45:00,,0831.0,4.99,0.00,30.0,28.6,00.0,38.3,31.7,22.3,0003.2,0021.59,0031.14,0020.56
2023-05-22 17:46:00,,0830.9,4.99,0.00,30.1,28.7,00.0,38.4,31.7,21.6,0003.2,0021.68,0031.18,0020.62
2023-05-22 17:47:00,,0830.9,4.99,0.00,30.1,28.5,00.0,38.4,31.7,22.1,0003.2,0021.67,0030.73,0020.62
2023-05-22 17:48:00,,0831.0,5.00,0.00,30.1,27.1,00.0,38.3,31.5,23.3,0003.2,0021.58,0030.84,0020.55
2023-05-22 17:49:00,,0830.9,5.00,0.00,30.0,25.7,00.0,38.2,31.3,22.7,0003.3,0021.59,0030.51,0020.52
2023-05-22 17:50:00,,0831.0,5.00,0.00,29.9,25.7,00.0,38.2,31.2,22.4,0003.3,0021.66,0029.74,0020.56
2023-05-22 17:51:00,,0830.9,5.01,0.00,29.8,25.9,00.0,38.2,31.1,22.7,0003.2,0021.68,0029.78,0020.57
2023-05-22 17:52:00,,0830.9,5.01,0.00,29.8,26.3,00.0,38.1,31.1,23.0,0003.3,0021.68,0029.41,0020.56
2023-05-22 17:53:00,,0830.9,4.99,0.00,29.7,26.6,00.0,38.1,31.2,22.7,0003.4,0021.74,0029.36,0020.59
2023-05-22 17:54:00,,0830.9,5.01,0.00,29.7,26.9,00.0,38.1,31.2,23.3,0003.4,0021.77,0029.66,0020.62
2023-05-22 17:55:00,,0830.9,5.00,0.00,29.7,27.2,00.0,38.1,31.2,23.4,0003.4,0021.79,0029.97,0020.63
2023-05-22 17:56:00,,0830.9,4.98,0.00,29.7,27.4,00.0,38.1,31.2,23.2,0003.4,0021.79,0030.05,0020.61
2023-05-22 17:57:00,,0830.9,5.00,0.00,29.7,27.6,00.0,38.1,31.3,23.0,0003.4,0021.73,0029.89,0020.57
2023-05-22 17:58:00,,0830.9,5.01,0.00,29.7,27.8,00.0,38.1,31.3,23.4,0003.4,0021.73,0029.70,0020.55
2023-05-22 17:59:00,,0830.9,4.98,0.00,29.7,27.9,00.0,38.1,31.3,23.2,0003.5,0021.79,0029.28,0020.58
